Edinburgh Airport, United Kingdom

3:58 PM GMT on January 20, 2018 (GMT +0000)
Edinburgh Airport

Weather History for EGPH - August, 2014

Change the Weather History Date:

Thursday, August 28, 2014

  Actual Average Record
Temperature  
Mean Temperature 61 °F -  
Max Temperature 69 °F 61 °F 69 °F (2002)
Min Temperature 53 °F 47 °F 44 °F (1997)
Degree Days  
Heating Degree Days 4    
Growing Degree Days 11 (Base 50)    
Moisture  
Dew Point 52 °F    
Average Humidity 74    
Maximum Humidity 88    
Minimum Humidity 52    
Precipitation  
Precipitation 0.00 in 0.09 in - ()
Sea Level Pressure  
Sea Level Pressure 29.67 in    
Wind  
Wind Speed 10 mph ()    
Max Wind Speed 21 mph    
Max Gust Speed -    
Visibility 6.2 miles    
Events Rain    
Averages and records for this station are not official NWS values.
T = Trace of Precipitation, MM = Missing Value Source: Averaged Metar Reports

Daily Weather History Graph

Daily Weather History Graph

Search for Another Location

Airport or City:

Trip Planner

Search our weather history database for the weather conditions in past years. The results will help you decide how hot, cold, wet, or windy it might be!

Date:

Astronomy

Aug. 28, 2014 Rise Set
Actual Time 6:09 AM BST 8:18 PM BST
Civil Twilight 5:29 AM BST 8:58 PM BST
Nautical Twilight 4:38 AM BST 9:49 PM BST
Astronomical Twilight 3:36 AM BST 10:49 PM BST
Moon 9:24 AM BST (8/28) 8:54 PM BST (8/28)
Length of Visible Light 15h 28m
Length of Day
14h 08m
Waxing Crescent, 7% of the Moon is Illuminated
Aug 28
Waxing Crescent
Sep 2
First Quarter
Sep 9
Full
Sep 16
Last Quarter
Sep 24
New

Hourly Weather History & Observations

Time (BST) Temp. Dew Point Humidity Pressure Visibility Wind Dir Wind Speed Gust Speed Precip Events Conditions
12:20 AM 53.6 °F 50.0 °F 88% 29.83 in 6.2 mi ENE 8.1 mph - N/A   Partly Cloudy
12:50 AM 53.6 °F 50.0 °F 88% 29.80 in 6.2 mi East 8.1 mph - N/A   Mostly Cloudy
1:20 AM 55.4 °F 50.0 °F 82% 29.80 in 6.2 mi ENE 9.2 mph - N/A   Overcast
1:50 AM 55.4 °F 50.0 °F 82% 29.80 in 6.2 mi East 5.8 mph - N/A   Mostly Cloudy
2:20 AM 57.2 °F 51.8 °F 82% 29.77 in 6.2 mi East 12.7 mph - N/A   Partly Cloudy
2:50 AM 57.2 °F 51.8 °F 82% 29.74 in 6.2 mi ENE 11.5 mph - N/A Rain Light Rain
3:20 AM 55.4 °F 51.8 °F 88% 29.74 in 6.2 mi East 10.4 mph - N/A Rain Light Rain
3:50 AM 57.2 °F 53.6 °F 88% 29.71 in 6.2 mi East 11.5 mph - N/A   Scattered Clouds
4:20 AM 57.2 °F 53.6 °F 88% 29.71 in 5.0 mi East 12.7 mph - N/A   Light Drizzle
4:50 AM 57.2 °F 53.6 °F 88% 29.71 in 6.2 mi East 11.5 mph - N/A   Scattered Clouds
5:20 AM 57.2 °F 53.6 °F 88% 29.68 in 6.2 mi East 10.4 mph - N/A   Light Drizzle
5:50 AM 57.2 °F 53.6 °F 88% 29.68 in 6.2 mi East 10.4 mph - N/A   Light Drizzle
6:20 AM 57.2 °F 53.6 °F 88% 29.68 in 6.2 mi East 9.2 mph - N/A   Overcast
6:50 AM 57.2 °F 53.6 °F 88% 29.68 in 6.2 mi ESE 10.4 mph - N/A   Scattered Clouds
7:20 AM 59.0 °F 53.6 °F 82% 29.68 in 6.2 mi ESE 8.1 mph - N/A   Scattered Clouds
7:50 AM 59.0 °F 55.4 °F 88% 29.65 in 6.2 mi ESE 10.4 mph - N/A   Mostly Cloudy
8:20 AM 59.0 °F 55.4 °F 88% 29.68 in 6.2 mi SE 8.1 mph - N/A   Scattered Clouds
8:50 AM 60.8 °F 55.4 °F 82% 29.68 in 6.2 mi ESE 5.8 mph - N/A   Scattered Clouds
9:20 AM 62.6 °F 57.2 °F 82% 29.68 in 6.2 mi South 6.9 mph - N/A   Scattered Clouds
9:50 AM 62.6 °F 55.4 °F 77% 29.65 in 6.2 mi South 11.5 mph - N/A   Scattered Clouds
10:20 AM 64.4 °F 57.2 °F 77% 29.65 in 6.2 mi SSW 8.1 mph - N/A   Scattered Clouds
10:50 AM 66.2 °F 55.4 °F 68% 29.65 in 6.2 mi SW 12.7 mph - N/A   Scattered Clouds
11:20 AM 68.0 °F 55.4 °F 64% 29.65 in 6.2 mi SSW 12.7 mph - N/A   Partly Cloudy
11:50 AM 68.0 °F 53.6 °F 60% 29.65 in 6.2 mi SSW 12.7 mph - N/A   Partly Cloudy
12:20 PM 68.0 °F 53.6 °F 60% 29.65 in 6.2 mi SSW 11.5 mph - N/A   Partly Cloudy
12:50 PM 68.0 °F 53.6 °F 60% 29.65 in 6.2 mi SSW 13.8 mph - N/A   Scattered Clouds
1:20 PM 69.8 °F 53.6 °F 56% 29.65 in 6.2 mi South 13.8 mph - N/A   Partly Cloudy
1:50 PM 69.8 °F 53.6 °F 56% 29.62 in 6.2 mi South 8.1 mph - N/A   Partly Cloudy
2:20 PM 68.0 °F 53.6 °F 60% 29.62 in 6.2 mi South 15.0 mph - N/A   Mostly Cloudy
2:50 PM 62.6 °F 57.2 °F 82% 29.65 in - SSW 20.7 mph - N/A Rain Light Rain Showers
3:20 PM 62.6 °F 53.6 °F 72% 29.65 in 6.2 mi SSW 17.3 mph - N/A   Mostly Cloudy
3:50 PM 60.8 °F 50.0 °F 68% 29.65 in 6.2 mi SSW 17.3 mph - N/A   Partly Cloudy
4:20 PM 60.8 °F 51.8 °F 72% 29.65 in 6.2 mi South 15.0 mph - N/A   Partly Cloudy
4:50 PM 66.2 °F 53.6 °F 64% 29.65 in 6.2 mi SSW 12.7 mph - N/A   Partly Cloudy
5:20 PM 66.2 °F 48.2 °F 52% 29.65 in 6.2 mi SSW 15.0 mph - N/A   Partly Cloudy
5:50 PM 64.4 °F 46.4 °F 52% 29.65 in - SW 13.8 mph - N/A   Clear
6:20 PM 62.6 °F 44.6 °F 52% 29.65 in 6.2 mi SSW 16.1 mph - N/A   Unknown
6:50 PM 62.6 °F 44.6 °F 52% 29.65 in - SW 15.0 mph - N/A   Clear
7:20 PM 60.8 °F 46.4 °F 59% 29.62 in - SSW 11.5 mph - N/A   Clear
7:50 PM 60.8 °F 48.2 °F 63% 29.62 in - SSW 12.7 mph - N/A   Clear
8:20 PM 59.0 °F 50.0 °F 72% 29.65 in - South 12.7 mph - N/A   Clear
8:50 PM 59.0 °F 50.0 °F 72% 29.65 in - South 8.1 mph - N/A   Clear
9:20 PM 59.0 °F 50.0 °F 72% 29.62 in - SSW 13.8 mph - N/A   Clear
9:50 PM 59.0 °F 50.0 °F 72% 29.62 in - SSW 15.0 mph - N/A   Clear
10:20 PM 57.2 °F 50.0 °F 77% 29.62 in - South 8.1 mph - N/A   Clear
10:50 PM 59.0 °F 50.0 °F 72% 29.62 in 6.2 mi SSE 8.1 mph - N/A   Partly Cloudy
11:20 PM 59.0 °F 50.0 °F 72% 29.62 in 6.2 mi SW 6.9 mph - N/A   Partly Cloudy
11:50 PM 59.0 °F 50.0 °F 72% 29.59 in 6.2 mi East 5.8 mph - N/A   Partly Cloudy